Location: Peebles
(55.6412°N, 3.1714°W)
Time: 20:22:52
(UTC+01:00)

deb AGENA D - Pass Details

Date: 03 July 2022
Orbit: 951 x 1019 km, 99.8° (Epoch: 17 August)

Event Time Altitude Azimuth Distance (km) Brightness Sun altitude
Exits shadow 02:55:26 10° 195° (SSW) 2,794 ? -8.6°
Maximum altitude 03:01:18 40° 263° (W) 1,474 ? -8.3°
Drops below altitude 10° 03:07:13 10° 332° (NNW) 2,814 ? -8.0°
Sets 03:09:54 0° 340° (NNW) 3,764 ? -7.8°
